Location: *
(40.9167°N, 9.5000°E)
Time: 09:18:45
(UTC+00:00)

DMSP B5D2-2 - Pass Details

Date: 09 April 2020
Orbit: 791 x 805 km, 98.3° (Epoch: 03 June)

Event Time Altitude Azimuth Distance (km) Brightness Sun altitude
Rises 19:00:24 0° 20° (NNE) 3,302 7.3 -12.5°
Reaches altitude 10° 19:02:51 10° 27° (NNE) 2,370 6.5 -12.9°
Maximum altitude 19:07:50 43° 98° (E) 1,105 4.4 -13.8°
Drops below altitude 10° 19:12:47 10° 170° (S) 2,363 6.2 -14.7°
Sets 19:15:13 0° 177° (S) 3,291 7.0 -15.1°
